Temp
18 18 18 19 19 19 20 20 20 20 20 20 20 20 19 19 19 19 19 19 19 19 19 19 19 19 19 19 19 19 19 19 19 19 20 20 20 20 21 21 21 21
18 18 18 18 18 18 19 19 20 20 20 20 20 20 19 19 19 19 20 19 19 19 19 19 19 20 19 19 19 19 19 19 19 19 20 20 20 20 20 21 21 21
17 17 17 17 17 18 19 19 19 20 20 20 20 20 19 19 19 19 19 20 19 19 19 19 19 19 19 19 19 19 19 19 20 20 20 20 20 20 20 20 20 21
17 17 17 17 17 17 18 18 19 19 19 19 19 19 19 19 19 19 19 19 19 19 19 19 19 19 19 19 19 19 19 19 20 20 20 20 20 20 20 20 20 21
17 17 17 17 17 17 17 18 18 19 19 19 19 19 19 19 19 19 19 19 19 19 19 19 19 19 19 19 19 19 19 19 19 20 20 20 20 20 20 20 20 20
17 16 17 17 17 17 17 17 18 18 19 19 19 19 19 19 19 19 19 19 19 19 19 19 19 19 19 19 19 19 19 19 19 19 20 20 20 20 20 20 20 20
16 16 17 17 17 17 17 17 18 18 18 19 19 19 19 19 19 19 19 19 19 19 19 20 20 19 19 19 19 19 19 19 19 19 19 20 20 20 20 20 20 20
16 16 17 17 16 17 17 17 17 18 18 18 19 19 18 18 18 19 19 19 19 19 19 19 20 19 19 19 19 19 19 19 19 19 19 19 19 20 20 20 20 21
16 16 16 17 16 16 17 17 17 17 18 18 19 19 18 18 18 18 18 18 18 19 19 19 19 19 19 19 19 19 19 19 19 19 19 19 19 19 20 20 20 21
16 16 16 16 16 16 16 17 17 17 18 18 18 18 18 18 18 18 18 18 18 18 19 19 19 19 19 19 19 19 19 19 19 19 19 19 19 19 20 20 20 20
16 16 16 16 16 16 16 17 17 17 17 18 18 18 18 18 18 18 19 19 18 18 18 18 18 19 19 19 19 19 19 19 19 19 19 19 19 19 19 19 20 20
16 16 16 16 16 16 16 17 17 17 17 18 18 18 18 18 18 19 19 19 19 19 18 18 18 18 18 18 19 19 19 19 19 19 19 19 19 19 19 19 19 20
16 16 16 16 17 17 17 17 17 17 17 18 18 18 18 18 18 18 19 19 19 18 18 18 18 18 18 18 18 19 19 19 19 19 19 19 19 19 19 19 19 20
16 16 16 16 17 17 17 17 17 17 17 18 18 18 18 18 18 18 18 18 18 18 18 18 18 18 18 18 18 18 19 19 19 19 19 19 19 19 19 19 19 20
16 16 16 16 17 17 17 17 17 17 17 17 17 17 17 17 18 18 18 18 18 18 18 17 17 17 18 18 18 18 18 18 18 18 19 19 19 19 19 19 19 19
16 16 16 17 17 17 17 17 17 17 17 17 17 17 17 17 17 17 17 17 18 18 17 17 17 17 17 18 18 18 18 18 18 18 18 18 18 19 19 19 19 19
17 16 16 16 17 17 17 17 17 17 17 17 17 17 17 17 17 17 17 17 17 17 17 17 17 17 17 18 18 18 18 18 18 18 18 18 18 18 18 18 19 19
17 17 17 17 17 17 17 18 17 17 17 17 17 17 17 16 17 17 17 17 17 17 17 17 17 17 17 17 17 17 17 17 17 17 18 18 18 18 18 18 18 18
17 17 17 18 18 18 18 18 18 18 17 17 17 17 17 17 16 17 17 17 17 17 17 17 17 17 17 17 17 17 17 17 17 17 17 17 17 17 17 17 18 18
17 17 17 17 17 17 17 17 17 17 17 17 17 17 17 17 17 16 16 17 17 17 17 17 17 17 17 17 17 17 17 17 17 17 17 17 17 17 17 17 17 17
17 17 17 17 17 17 17 17 17 17 17 17 17 18 18 17 17 16 16 17 17 17 17 16 17 17 17 17 17 17 17 17 17 17 17 17 17 17 17 17 17 17
17 17 17 17 17 17 17 17 17 17 17 17 17 17 17 17 17 16 16 17 17 17 17 17 17 17 17 17 17 17 17 16 17 17 17 17 17 17 17 17 17 18
17 17 17 17 17 17 17 17 17 17 17 17 17 17 17 17 17 17 17 17 17 17 17 17 17 17 17 17 17 16 16 16 17 17 17 17 17 17 17 17 18 18
17 17 17 17 17 17 17 17 17 17 17 16 16 17 17 17 17 17 17 17 17 17 16 17 17 17 17 17 17 16 16 16 16 17 17 17 17 17 17 17 18 18
17 17 18 18 18 18 17 17 17 17 17 17 17 17 17 17 17 17 17 17 17 17 16 16 16 17 17 17 17 16 16 16 16 17 17 17 17 17 17 17 17 18
18 18 18 18 18 17 17 17 17 17 17 17 17 17 17 17 16 16 17 17 16 16 17 17 17 17 17 17 16 16 16 16 16 17 17 17 17 17 17 17 18 18
Height
1520 1522 1525 1526 1527 1529 1532 1533 1535 1537 1538 1540 1542 1545 1547 1550 1553 1555 1558 1560 1562 1564 1566 1568 1570 1573 1575 1577 1579 1580 1582 1583 1584 1586 1587 1587 1588 1589 1590 1591 1592 1593
1517 1519 1521 1522 1524 1526 1529 1531 1532 1534 1536 1538 1540 1543 1546 1548 1551 1553 1555 1557 1560 1562 1564 1566 1568 1570 1573 1575 1577 1578 1580 1581 1583 1584 1585 1586 1587 1588 1589 1590 1591 1592
1514 1516 1517 1518 1520 1522 1525 1528 1530 1532 1534 1537 1539 1541 1544 1546 1549 1551 1553 1555 1557 1559 1562 1564 1566 1568 1570 1572 1574 1576 1578 1579 1581 1582 1584 1585 1586 1587 1588 1589 1590 1590
1511 1512 1513 1515 1517 1519 1522 1524 1526 1529 1532 1534 1537 1539 1542 1545 1547 1549 1551 1553 1555 1557 1559 1562 1564 1566 1568 1570 1572 1574 1576 1577 1579 1581 1582 1583 1584 1585 1586 1587 1588 1589
1507 1508 1510 1512 1514 1517 1519 1520 1523 1526 1528 1531 1534 1537 1540 1542 1545 1547 1549 1551 1553 1555 1557 1560 1562 1564 1566 1568 1570 1572 1574 1576 1577 1579 1580 1581 1582 1583 1584 1585 1586 1587
1502 1504 1506 1508 1510 1512 1514 1517 1520 1522 1526 1529 1532 1535 1537 1540 1542 1545 1547 1549 1551 1553 1555 1558 1560 1562 1564 1566 1568 1570 1572 1573 1575 1577 1578 1579 1581 1582 1583 1584 1585 1586
1497 1500 1502 1504 1506 1508 1511 1514 1517 1520 1523 1527 1530 1532 1535 1538 1540 1542 1545 1548 1550 1552 1554 1555 1558 1560 1562 1564 1565 1567 1569 1571 1573 1575 1576 1577 1579 1580 1581 1582 1583 1584
1494 1496 1498 1500 1502 1504 1507 1512 1515 1517 1521 1525 1527 1530 1533 1535 1538 1541 1543 1546 1548 1550 1552 1553 1556 1558 1560 1561 1563 1565 1567 1569 1571 1572 1574 1575 1577 1578 1579 1580 1581 1582
1490 1492 1494 1496 1498 1500 1504 1508 1512 1516 1519 1522 1525 1528 1531 1534 1537 1539 1542 1544 1547 1548 1550 1552 1553 1555 1557 1559 1561 1563 1565 1567 1568 1570 1572 1573 1574 1576 1577 1578 1579 1580
1486 1488 1491 1492 1494 1496 1500 1505 1510 1514 1517 1520 1523 1526 1529 1531 1534 1536 1539 1542 1545 1546 1548 1549 1551 1553 1555 1556 1558 1560 1562 1564 1566 1568 1569 1571 1572 1573 1575 1576 1577 1578
1483 1485 1487 1488 1490 1493 1497 1503 1508 1512 1515 1518 1521 1523 1526 1528 1531 1533 1535 1538 1541 1543 1545 1547 1548 1550 1552 1554 1556 1557 1559 1561 1563 1565 1566 1568 1570 1571 1572 1574 1574 1575
1482 1483 1484 1484 1487 1490 1495 1500 1505 1509 1513 1516 1518 1521 1523 1525 1528 1530 1532 1535 1537 1539 1541 1544 1546 1548 1549 1551 1553 1555 1557 1559 1560 1562 1564 1565 1567 1568 1570 1571 1572 1573
1482 1482 1482 1482 1484 1489 1494 1499 1503 1507 1510 1513 1516 1518 1519 1522 1525 1527 1530 1532 1534 1536 1538 1540 1543 1545 1547 1549 1551 1552 1554 1556 1557 1559 1561 1562 1564 1565 1567 1568 1569 1570
1482 1483 1483 1483 1485 1490 1494 1498 1502 1506 1508 1511 1513 1515 1516 1519 1522 1525 1528 1529 1531 1533 1535 1537 1540 1542 1544 1546 1548 1550 1552 1553 1555 1556 1558 1559 1561 1562 1564 1565 1566 1567
1484 1484 1485 1486 1488 1491 1494 1498 1501 1505 1508 1510 1511 1513 1515 1517 1521 1524 1526 1527 1529 1531 1533 1535 1537 1539 1541 1543 1546 1547 1549 1551 1552 1554 1555 1556 1558 1559 1561 1562 1563 1564
1486 1486 1487 1488 1490 1492 1494 1497 1501 1504 1507 1509 1511 1513 1515 1517 1520 1523 1524 1526 1528 1529 1531 1532 1534 1536 1538 1541 1543 1545 1547 1548 1550 1551 1552 1553 1555 1556 1557 1559 1560 1561
1488 1488 1489 1490 1491 1493 1496 1498 1501 1503 1505 1508 1510 1512 1514 1516 1518 1520 1523 1525 1526 1527 1529 1530 1532 1534 1536 1538 1540 1542 1544 1545 1547 1548 1549 1550 1552 1553 1554 1555 1557 1558
1489 1490 1491 1491 1493 1495 1497 1499 1501 1503 1505 1507 1509 1510 1512 1514 1515 1517 1519 1522 1524 1526 1527 1528 1529 1531 1533 1535 1538 1539 1541 1542 1544 1545 1546 1547 1549 1550 1552 1553 1554 1555
1490 1491 1491 1492 1493 1495 1496 1498 1500 1502 1503 1505 1507 1508 1510 1512 1514 1516 1517 1519 1522 1524 1525 1526 1527 1528 1530 1533 1535 1536 1538 1540 1541 1542 1543 1545 1546 1548 1549 1550 1551 1552
1490 1490 1491 1491 1492 1494 1495 1497 1498 1500 1501 1503 1505 1506 1507 1509 1511 1514 1516 1518 1519 1521 1522 1524 1525 1526 1527 1530 1532 1534 1536 1537 1538 1540 1541 1542 1544 1545 1547 1547 1548 1549
1489 1490 1490 1491 1492 1493 1494 1495 1497 1498 1499 1501 1502 1503 1504 1506 1508 1511 1513 1515 1516 1517 1519 1520 1522 1523 1525 1527 1529 1531 1533 1534 1535 1537 1539 1540 1541 1543 1544 1544 1546 1546
1489 1489 1490 1490 1491 1492 1493 1494 1495 1496 1498 1499 1500 1501 1502 1504 1506 1508 1510 1511 1512 1514 1515 1517 1519 1521 1522 1524 1527 1528 1529 1530 1532 1534 1535 1537 1538 1540 1541 1542 1543 1543
1488 1489 1489 1490 1490 1491 1492 1492 1493 1495 1496 1497 1498 1499 1501 1502 1504 1506 1507 1508 1509 1510 1512 1514 1516 1518 1520 1522 1524 1525 1525 1528 1529 1531 1532 1533 1535 1537 1538 1539 1540 1540
1487 1488 1488 1489 1490 1490 1491 1492 1492 1493 1494 1495 1496 1497 1499 1500 1501 1503 1504 1506 1507 1508 1510 1512 1514 1516 1518 1520 1521 1522 1523 1525 1526 1527 1529 1530 1531 1533 1535 1536 1537 1537
1486 1487 1487 1488 1489 1489 1490 1491 1491 1492 1493 1494 1495 1496 1497 1498 1499 1501 1502 1503 1505 1507 1508 1510 1512 1513 1515 1517 1518 1520 1521 1522 1523 1524 1525 1527 1528 1530 1531 1532 1533 1534
1485 1486 1486 1487 1488 1489 1489 1490 1490 1491 1492 1493 1494 1494 1495 1497 1498 1499 1500 1501 1503 1504 1506 1507 1509 1510 1512 1514 1516 1517 1519 1520 1521 1522 1523 1525 1526 1527 1528 1529 1530 1531
Wind_Speed
41 39 36 34 34 34 32 32 32 32 33 35 36 35 34 32 30 30 30 29 28 26 24 25 26 26 25 25 24 22 21 20 18 17 17 17 16 15 14 13 13 12
43 42 41 38 37 35 34 33 32 32 32 34 35 35 34 32 31 30 30 29 29 27 26 26 27 26 26 25 24 23 22 22 21 19 18 18 17 17 16 15 15 14
43 43 44 42 40 37 35 34 34 32 31 32 34 35 35 33 31 31 30 30 29 28 27 27 27 27 27 26 25 25 24 23 23 21 20 19 19 18 17 17 16 16
44 44 46 45 42 40 37 35 35 34 33 32 33 34 34 33 32 32 31 31 30 29 29 28 28 27 27 27 26 26 26 24 23 23 22 21 20 19 18 18 18 18
41 44 46 45 43 43 40 37 36 36 35 33 33 33 34 33 32 32 32 32 31 30 30 30 28 28 28 28 26 27 27 25 24 23 23 22 21 20 19 19 19 19
34 38 43 45 45 45 44 40 37 37 36 35 33 32 33 33 32 32 33 33 32 30 30 31 30 28 28 28 27 27 27 26 25 24 24 23 22 21 20 19 19 20
30 33 37 42 45 47 46 41 37 37 37 35 34 32 32 32 32 32 32 33 33 31 30 31 31 29 28 29 29 28 28 28 27 26 25 24 23 22 22 21 20 20
27 29 31 35 40 45 46 42 38 38 37 36 34 33 32 31 31 31 31 32 33 32 31 30 31 30 29 29 29 29 29 29 28 28 26 25 24 23 22 21 20 20
26 27 27 28 33 42 47 44 40 38 37 36 34 32 31 30 29 29 29 30 31 31 31 30 30 31 31 30 30 30 30 29 29 29 28 26 25 25 24 22 21 20
23 25 26 26 30 39 46 44 40 39 38 36 33 31 30 29 29 30 30 29 29 30 30 29 29 30 31 31 31 31 30 30 30 30 30 28 27 26 25 24 23 22
20 23 24 27 32 39 43 42 39 39 37 35 33 30 29 29 29 30 30 28 28 29 29 29 29 29 30 31 32 32 32 31 30 31 31 31 30 28 27 26 25 24
14 17 20 26 33 39 41 40 39 39 37 34 32 30 29 29 29 30 29 28 28 29 29 29 29 29 29 29 31 32 32 32 32 32 32 32 32 31 30 28 28 27
10 12 16 24 33 39 39 38 37 37 37 34 32 31 30 30 29 29 29 28 29 29 29 29 29 29 29 29 29 30 31 32 32 33 33 33 33 33 32 31 30 30
7 9 12 20 30 35 36 36 35 36 36 34 32 32 31 30 28 27 27 28 29 30 29 29 29 29 29 28 28 28 29 29 30 32 33 33 34 34 33 33 32 31
4 6 9 16 23 28 30 31 31 33 33 32 32 31 31 29 27 26 26 26 28 29 29 29 29 30 29 28 27 26 27 27 28 29 30 31 32 32 32 31 30 30
2 4 7 12 18 22 24 25 26 28 29 30 30 29 28 26 25 25 25 25 27 27 27 28 29 30 30 29 28 26 26 26 27 28 29 29 30 30 30 30 30 30
3 4 6 9 13 15 17 20 22 24 26 27 27 26 25 24 24 25 26 26 26 26 26 28 29 30 29 29 28 27 26 26 27 27 28 29 29 29 30 30 30 30
5 4 6 7 7 8 11 16 19 21 22 23 24 24 24 24 24 25 26 25 25 25 27 29 29 29 29 28 28 27 27 27 27 27 28 28 27 27 27 27 27 27
5 6 7 8 7 8 11 15 18 21 22 23 24 24 25 24 24 25 25 25 25 26 28 29 30 29 28 27 28 28 27 27 29 29 29 28 26 24 23 24 24 24
6 7 9 9 9 10 12 14 16 19 21 23 23 24 25 25 25 25 25 25 25 26 27 27 28 29 27 27 28 28 27 29 31 32 31 29 27 24 23 23 24 24
6 7 8 9 10 11 12 13 14 16 17 19 21 22 24 25 25 24 24 24 24 24 24 25 26 27 27 28 28 28 29 30 32 32 30 29 28 26 24 24 23 22
7 7 8 8 9 10 11 12 12 12 13 14 17 19 21 21 22 22 22 22 22 21 22 23 24 24 25 25 26 28 30 31 31 30 30 30 29 28 26 24 21 20
8 8 8 8 8 9 9 9 10 10 11 12 14 15 17 18 18 18 19 19 20 20 21 22 22 22 22 22 24 27 28 28 28 29 30 30 28 25 24 22 20 19
9 9 9 8 8 8 8 8 9 9 10 11 12 12 13 14 15 15 16 17 19 20 20 21 21 20 20 21 22 23 24 25 26 27 28 29 27 23 22 22 21 20
10 10 10 8 7 8 8 9 10 10 11 11 11 11 11 12 13 14 14 16 17 19 19 19 19 19 20 20 20 20 20 21 24 26 26 26 25 24 22 21 22 22
11 11 11 10 9 9 9 10 11 11 11 11 11 11 11 12 12 13 13 14 16 17 18 18 18 18 19 19 19 18 17 18 20 23 25 25 25 24 21 21 22 22
Wind_Direction
236 234 232 232 231 226 223 222 220 219 217 215 214 213 212 211 211 212 213 214 215 217 217 215 215 216 219 220 221 224 226 226 225 226 228 229 230 231 232 229 228 231
238 235 232 232 232 227 224 224 223 221 219 217 216 215 215 214 213 214 214 214 215 216 216 215 216 218 219 219 221 224 227 229 228 227 230 230 230 232 233 232 228 228
240 238 234 233 232 227 224 224 224 223 222 220 218 218 217 217 216 216 216 215 216 217 216 215 216 218 219 219 221 224 226 230 230 230 232 233 233 233 234 234 232 231
240 239 237 236 233 228 225 224 222 222 223 221 220 220 219 219 218 218 218 217 217 218 218 217 216 217 219 220 222 224 225 228 230 231 233 235 234 233 233 234 234 234
239 238 236 236 235 230 227 227 223 220 222 222 221 221 220 219 219 219 218 218 218 219 219 218 217 217 218 220 222 224 225 226 228 230 232 234 234 233 233 234 236 236
238 237 235 236 236 232 228 226 224 221 221 221 220 220 220 219 219 219 219 219 219 219 220 219 219 219 219 220 221 224 225 226 227 229 232 234 235 235 234 236 238 238
239 237 235 234 234 232 230 226 224 221 220 220 219 219 219 218 218 219 220 221 220 220 221 221 221 220 220 221 222 224 226 227 227 229 232 235 237 238 239 241 243 242
243 238 236 234 231 230 229 226 223 222 220 219 219 218 218 218 219 219 220 221 222 222 222 223 223 223 223 224 224 226 226 227 228 228 231 234 237 240 241 243 246 247
245 239 237 236 232 229 227 223 221 222 220 218 218 218 218 219 219 220 221 222 222 223 223 224 225 226 226 227 227 227 227 228 229 229 230 233 237 240 243 244 248 250
244 241 236 234 230 226 224 220 218 220 220 217 217 218 218 218 218 220 221 221 222 223 224 225 226 228 228 230 230 230 230 230 231 232 232 233 236 240 244 246 249 250
241 239 235 233 228 222 219 215 214 218 218 217 217 217 217 217 218 220 222 220 219 221 223 224 226 227 228 230 231 232 233 233 233 233 234 235 237 241 245 248 250 252
242 239 241 236 223 216 213 209 211 216 217 216 215 215 216 217 218 222 223 221 219 220 222 224 226 227 228 229 230 232 234 235 234 234 235 237 239 242 245 248 251 253
256 246 242 225 209 206 207 205 209 215 216 216 216 215 217 218 219 222 222 222 222 221 220 223 226 228 229 230 230 231 233 235 235 236 237 238 240 242 245 248 251 254
263 244 227 205 196 198 202 202 207 215 217 219 218 218 219 219 220 223 223 224 224 222 221 223 225 228 229 229 229 229 231 233 235 237 239 240 242 243 245 248 250 252
260 233 215 201 197 200 202 204 210 216 219 221 220 221 221 220 222 225 226 227 225 223 223 224 226 228 228 228 228 228 230 233 236 238 239 241 242 244 245 248 250 251
236 221 210 206 207 208 206 207 212 217 221 223 223 224 225 225 226 228 229 229 226 224 225 225 227 228 227 228 228 230 234 237 239 240 240 241 243 244 246 248 250 252
220 228 220 215 218 219 214 212 214 219 223 225 225 227 228 230 231 232 234 234 230 229 230 229 229 228 226 227 229 232 236 239 241 243 242 243 244 246 248 250 252 254
217 224 229 222 216 215 215 215 219 223 225 227 228 229 232 234 233 233 235 235 233 234 236 235 233 231 229 230 232 234 237 240 241 243 243 243 243 245 248 250 251 252
220 220 225 221 210 205 208 211 216 222 225 227 229 232 234 236 236 234 232 231 231 235 238 238 236 234 233 234 236 237 239 241 242 243 243 242 241 244 249 250 249 250
224 222 223 221 215 214 215 216 218 222 226 229 231 234 235 237 238 238 235 232 231 233 237 239 238 236 234 236 239 241 242 243 243 242 243 243 243 243 247 251 252 253
218 218 218 216 213 215 218 219 221 223 225 228 231 234 237 238 239 239 237 235 232 232 236 239 238 236 234 235 239 242 243 243 243 243 244 246 248 248 248 250 253 255
203 202 205 208 210 215 216 214 216 219 220 223 226 229 232 234 235 235 234 233 233 233 235 237 236 233 232 233 237 239 240 241 242 244 245 247 250 251 250 248 250 252
198 194 196 200 205 212 213 211 212 212 213 218 223 226 229 231 232 233 233 235 236 236 236 235 232 230 229 230 233 236 239 241 244 246 247 247 248 248 246 246 248 250
198 197 198 198 199 203 205 207 209 210 210 213 221 228 232 234 235 235 235 235 234 233 232 231 229 228 229 229 232 238 242 245 246 248 247 244 242 241 242 245 249 252
201 200 199 194 189 191 198 203 205 205 206 209 214 219 221 224 227 229 230 230 229 229 230 230 230 230 229 231 236 244 248 247 248 249 246 241 237 238 241 247 252 254
208 203 199 193 188 188 193 199 202 203 204 207 208 207 209 215 220 225 228 229 229 229 229 230 232 232 232 235 239 244 248 247 246 246 244 238 235 237 242 247 250 251